This is the latest recevied weather packets stored in our database for station/object KD0RII. If no packets are shown the sender has not sent any weather packets the latest 10 day(s).
| Time | Temp. | Humidity | Pressure | Rain* | Wind** | Luminosity | Snow |
|---|---|---|---|---|---|---|---|
| 1778114648 | 13.89° C | 45% | 1019 hPa | 0 mm | - | 20 W/m² | - |
| 1778114346 | 14.44° C | 43% | 1019 hPa | 0 mm | - | 23 W/m² | - |
| 1778114041 | 15° C | 44% | 1018.8 hPa | 0 mm | - | 25 W/m² | - |
| 1778113736 | 15° C | 42% | 1018.7 hPa | 0 mm | - | 43 W/m² | - |
| 1778113433 | 15° C | 40% | 1018.9 hPa | 0 mm | - | 31 W/m² | - |
| 1778113130 | 15° C | 39% | 1018.7 hPa | 0 mm | - | 32 W/m² | - |
| 1778112827 | 15° C | 40% | 1018.8 hPa | 0 mm | - | 55 W/m² | - |
| 1778112523 | 15.56° C | 41% | 1018.7 hPa | 0 mm | - | 39 W/m² | - |
| 1778112219 | 15° C | 40% | 1018.9 hPa | 0 mm | - | 38 W/m² | - |
| 1778111916 | 15° C | 38% | 1018.8 hPa | 0 mm | - | 58 W/m² | - |
| 1778111613 | 15.56° C | 38% | 1018.9 hPa | 0 mm | - | 76 W/m² | - |
| 1778111308 | 15.56° C | 38% | 1018.7 hPa | 0 mm | - | 98 W/m² | - |
| 1778111006 | 16.67° C | 39% | 1018.9 hPa | 0 mm | - | 100 W/m² | - |
| 1778110704 | 16.11° C | 36% | 1018.9 hPa | 0 mm | - | 191 W/m² | - |
| 1778110399 | 16.67° C | 37% | 1018.8 hPa | 0 mm | - | 205 W/m² | - |
| 1778110097 | 17.22° C | 38% | 1018.7 hPa | 0 mm | - | 222 W/m² | - |
| 1778109792 | 17.22° C | 37% | 1018.9 hPa | 0 mm | - | 240 W/m² | - |
| 1778109489 | 17.78° C | 36% | 1018.7 hPa | 0 mm | - | 257 W/m² | - |
| 1778109187 | 16.67° C | 35% | 1018.9 hPa | 0 mm | - | 274 W/m² | - |
| 1778108884 | 17.22° C | 36% | 1018.9 hPa | 0 mm | - | 291 W/m² | - |
| 1778108581 | 17.22° C | 37% | 1018.8 hPa | 0 mm | - | 309 W/m² | - |
| 1778108277 | 17.22° C | 37% | 1019 hPa | 0 mm | - | 325 W/m² | - |
| 1778107974 | 17.22° C | 35% | 1018.8 hPa | 0 mm | - | 343 W/m² | - |
| 1778107670 | 16.67° C | 34% | 1018.7 hPa | 0 mm | - | 356 W/m² | - |
| 1778107368 | 16.67° C | 36% | 1018.9 hPa | 0 mm | - | 374 W/m² | - |
* Rain latest hour (hover to see other rain measurements)
** Current wind speed in m/s (hover to see current wind gust speed)